Theta_e
325 330 329 329 328 325 324 322 320 321 322 320 317 315 319 323 314 311 328 341 330 328 336 338 341 348 346 345 344 340 344 347 345 362 378 372 368 372 374 377 381 381 384 391 390 382 379 374 368 366 365 364 362 361 358 357 356 357 359 360 362 369 372 371 369 369 369 368 367 367 368 367 365 364 363 362 362 363 362 361 359 357 355 352 349 347 345
324 328 328 330 329 325 324 324 324 323 323 322 320 320 323 324 321 321 329 336 334 333 335 334 337 342 342 343 344 341 340 341 343 357 368 365 363 368 372 377 381 380 381 387 389 386 383 379 372 368 367 366 364 363 359 357 355 356 358 359 362 367 371 371 370 370 370 370 369 369 369 368 366 365 364 363 362 362 362 360 358 357 354 351 349 347 345
321 326 329 329 328 326 322 322 326 327 325 323 322 322 323 322 323 325 325 327 330 332 335 336 337 340 343 345 344 343 346 345 342 344 347 349 354 360 367 375 378 379 379 382 386 387 384 380 374 369 368 367 365 364 361 358 357 356 358 361 362 366 371 371 371 371 372 372 372 370 369 368 367 366 364 363 362 361 362 360 358 357 354 351 349 346 345
317 324 327 325 327 327 320 319 324 325 323 322 322 324 325 322 321 324 321 319 325 332 335 335 336 338 340 340 340 343 349 347 343 342 340 344 352 358 366 374 376 377 376 377 382 383 379 377 375 369 370 370 367 365 362 359 357 356 360 363 363 366 371 372 372 373 373 374 373 371 370 368 367 366 364 363 362 361 362 361 359 357 352 349 348 346 345
316 324 325 324 324 320 315 319 324 327 327 326 325 327 329 326 324 321 317 319 329 337 336 334 334 335 337 341 340 342 350 356 355 350 344 343 347 354 367 377 377 374 370 370 376 379 375 374 373 371 371 371 369 366 363 362 360 357 362 365 365 367 372 373 374 375 375 374 373 371 370 367 366 367 365 363 362 362 362 361 360 357 352 349 347 345 345
315 321 324 323 320 315 317 325 329 329 329 328 326 327 329 329 329 326 324 328 335 337 334 333 335 335 338 345 346 344 348 355 357 352 348 348 345 345 357 370 375 375 373 372 375 377 375 372 371 370 370 370 369 367 365 365 362 359 364 368 367 370 374 374 375 375 374 374 372 370 369 367 367 367 365 364 363 362 362 361 359 356 351 348 346 346 346
315 320 322 318 315 319 326 331 333 330 329 329 329 330 331 330 330 331 332 331 333 335 334 332 336 340 338 339 343 344 341 343 345 344 344 350 351 350 352 359 372 380 380 378 378 378 375 371 369 369 370 369 369 367 367 367 365 362 366 370 370 372 375 376 375 374 374 372 371 369 368 366 366 366 365 365 364 363 362 360 358 355 350 346 345 346 347
319 319 319 318 320 326 330 334 333 331 331 331 327 324 328 330 330 336 342 339 335 335 333 330 333 338 335 333 340 343 338 336 338 336 335 340 343 345 348 354 373 387 383 377 378 379 374 371 369 370 370 369 368 367 367 368 366 366 370 371 372 375 376 376 374 374 373 371 370 369 367 366 366 365 365 365 364 363 362 360 357 354 350 347 346 346 346
323 318 316 321 323 324 328 334 336 335 334 332 328 324 328 335 336 339 344 343 340 338 338 337 336 337 335 334 336 336 332 332 335 333 332 334 334 338 343 345 361 380 379 375 376 377 374 372 370 370 370 370 368 367 366 366 367 371 374 374 374 376 376 375 374 373 371 369 369 367 366 365 364 363 364 365 364 363 362 360 357 353 351 349 348 346 346
324 320 318 323 321 320 329 337 339 340 335 334 338 331 331 344 349 344 343 345 344 343 345 346 346 345 344 339 335 333 330 330 332 330 330 333 333 336 342 339 345 367 376 376 375 376 375 372 370 371 371 371 370 369 368 367 368 371 375 376 376 377 376 374 372 371 369 367 366 364 363 363 361 361 361 362 364 363 362 360 358 354 352 350 349 348 347
323 321 320 323 321 325 339 344 339 339 335 336 339 327 326 346 356 348 346 347 345 345 348 350 350 348 345 340 336 334 331 331 331 331 334 334 331 334 338 336 347 367 376 375 375 375 374 373 371 372 372 372 371 370 370 369 367 371 375 377 377 376 374 372 370 368 367 364 363 362 361 361 360 359 359 360 362 362 361 360 358 355 353 352 350 349 348
324 324 322 322 323 333 347 343 335 337 336 337 333 321 323 346 355 347 347 349 347 349 352 351 349 349 347 345 343 337 332 331 332 335 342 343 341 340 337 345 366 377 376 376 376 375 373 372 372 372 372 372 370 370 371 370 370 374 376 376 375 373 371 369 367 366 364 362 361 360 360 360 358 358 358 358 360 361 360 360 358 356 354 352 350 349 348
324 324 323 324 329 339 346 338 335 338 336 332 327 323 334 350 348 343 347 347 346 350 353 352 353 352 350 348 344 338 333 333 335 339 345 350 351 341 333 355 376 379 376 377 376 372 372 372 371 371 372 372 372 372 373 372 373 375 376 374 373 370 369 367 365 364 362 361 360 360 359 359 357 357 358 357 358 360 359 358 356 353 351 350 348 346 345
324 325 327 326 330 340 343 336 336 337 333 329 328 335 346 348 343 344 348 346 348 351 351 353 354 352 348 347 344 338 333 336 342 347 348 351 356 351 350 366 376 374 374 376 373 370 371 371 370 372 372 372 373 374 374 374 375 375 374 373 371 369 367 366 364 362 360 359 359 358 357 357 357 357 357 357 358 359 358 356 354 351 349 348 346 344 341
324 325 327 324 326 338 341 335 336 338 335 335 341 346 346 343 343 347 347 347 349 350 349 352 353 351 350 350 348 346 343 341 347 353 355 357 362 365 367 371 371 369 372 373 369 368 371 371 371 373 373 374 374 374 375 375 374 374 372 370 368 367 365 363 361 359 358 358 358 357 357 357 357 357 357 358 358 358 356 354 352 351 349 347 345 343 339
322 318 322 326 330 337 336 335 339 342 342 343 346 344 343 342 342 343 345 346 345 343 345 347 349 351 352 349 346 349 349 343 346 356 361 359 360 364 368 368 367 367 371 372 369 368 370 371 372 372 373 373 373 374 374 374 371 371 370 368 366 365 363 361 360 359 357 356 356 357 356 356 357 357 357 357 356 355 354 353 352 351 349 345 344 343 340
328 325 329 335 339 338 336 339 343 343 341 341 340 340 341 340 340 343 347 347 345 345 346 347 348 353 356 355 354 354 355 354 355 362 365 364 360 362 366 368 369 369 371 374 373 372 372 372 372 373 372 372 373 373 372 370 369 368 367 367 365 364 362 360 359 358 357 356 356 356 356 356 357 357 356 356 355 354 354 353 351 350 348 345 344 342 341
340 341 341 340 340 338 336 338 338 337 337 338 338 340 341 339 339 344 348 349 349 350 352 352 353 353 353 354 355 356 358 359 358 359 361 358 358 362 365 366 368 369 371 373 373 374 375 373 372 373 371 371 372 371 369 368 367 366 366 364 364 362 361 359 358 357 357 356 356 356 356 355 356 355 354 354 354 353 352 352 351 349 348 346 344 342 341
342 346 347 342 340 340 337 336 336 335 336 337 339 342 343 342 342 344 346 347 348 348 350 351 351 349 348 348 350 351 353 353 351 354 358 354 351 351 351 353 359 365 369 372 374 374 374 372 372 372 371 370 370 369 368 367 366 365 364 363 362 361 360 358 356 356 356 356 356 355 354 354 354 353 353 352 352 352 351 350 350 349 347 346 344 342 341
345 346 346 342 339 339 336 336 338 338 338 338 340 341 342 342 341 340 340 340 340 342 345 347 347 347 347 346 346 347 347 347 348 351 353 352 351 350 348 347 350 355 360 362 364 366 365 364 367 368 369 368 367 366 366 365 364 363 362 360 360 359 357 356 355 354 355 355 355 353 352 352 351 350 351 351 350 350 350 349 349 348 346 345 343 342 341
347 346 344 343 342 341 338 337 337 338 339 339 338 338 338 338 337 337 337 336 335 336 338 340 344 346 346 346 347 346 344 343 346 348 350 350 349 349 349 350 350 352 355 355 356 359 360 360 362 364 364 363 363 363 362 361 360 360 358 357 358 356 355 355 355 354 354 353 351 349 348 348 347 346 347 348 348 347 347 347 347 346 345 344 343 342 340
346 345 343 344 344 343 341 338 336 337 337 337 337 336 335 334 334 335 334 333 333 333 333 334 338 342 345 346 347 347 345 344 344 346 348 349 349 348 347 347 348 351 354 355 356 359 360 359 359 360 360 360 360 360 360 359 358 357 355 356 355 354 353 353 352 353 352 349 347 345 344 343 342 342 342 343 344 344 344 345 344 343 343 342 341 340 339
342 341 341 342 342 342 341 338 337 336 335 334 334 334 332 332 332 331 331 330 331 331 330 330 332 336 339 343 347 349 348 345 345 346 346 346 348 349 348 349 351 353 355 357 358 358 357 357 357 357 358 358 359 359 359 359 358 356 356 355 353 352 352 351 350 351 350 346 344 343 341 340 339 338 338 339 340 340 341 341 341 341 341 341 340 339 338
340 340 340 340 339 338 336 335 335 335 335 334 334 333 331 330 329 328 328 327 328 328 328 328 329 331 333 336 339 343 345 346 346 346 345 345 349 352 354 356 357 358 358 359 358 357 357 357 356 357 357 357 358 358 358 358 358 357 356 354 352 352 351 349 350 351 348 345 344 342 341 340 338 337 336 335 334 334 336 338 338 339 339 340 339 338 338
339 339 338 339 337 334 333 332 332 332 332 332 333 333 332 330 329 328 328 326 325 325 325 325 326 326 328 330 332 334 337 340 341 343 345 347 349 350 352 355 358 359 359 358 357 356 356 356 356 356 357 356 356 356 356 356 356 355 354 352 350 349 349 349 350 349 347 345 344 343 343 342 340 339 338 335 332 330 331 333 335 336 338 339 338 337 337
338 338 337 337 335 333 332 332 331 330 329 329 330 330 330 330 330 329 328 327 325 325 324 324 323 323 325 327 328 330 332 333 334 337 341 343 345 347 348 350 353 355 356 356 356 355 354 354 355 355 354 354 354 354 354 354 354 353 352 351 349 348 348 349 350 348 346 345 344 343 343 343 342 341 340 339 335 331 329 331 332 332 333 335 336 336 336
334 335 335 336 334 332 331 331 330 328 328 327 327 327 328 329 330 331 330 329 329 328 327 324 322 322 323 325 326 326 327 328 330 334 338 339 340 342 345 346 348 352 353 354 355 354 353 353 353 352 352 352 352 352 352 352 351 350 350 349 349 348 348 348 348 347 346 344 343 343 342 343 343 342 341 340 338 335 333 333 333 331 329 329 330 332 333
330 330 331 333 333 332 330 329 329 328 327 327 326 325 325 326 328 329 329 329 331 332 329 326 324 324 324 325 326 323 323 325 327 329 333 335 335 337 342 345 346 347 349 351 351 351 351 352 352 351 352 351 350 350 351 349 348 348 347 347 346 346 347 347 346 344 344 343 342 342 342 342 342 341 340 340 339 338 337 337 336 333 328 325 325 326 327
327 327 328 329 330 329 328 328 328 327 327 327 326 326 325 326 327 327 325 325 327 329 328 326 326 326 326 328 328 323 322 326 328 326 329 333 331 330 336 342 344 346 347 347 348 349 350 351 351 350 350 349 349 349 348 347 347 346 344 344 343 343 344 345 344 343 343 342 341 341 340 340 339 339 338 339 339 339 338 338 337 332 325 322 322 321 321
325 326 326 326 325 325 326 327 327 326 325 325 326 326 326 327 328 328 325 323 323 324 325 324 326 327 327 328 327 323 324 329 330 326 328 332 330 327 330 335 340 344 345 345 347 349 350 350 350 348 347 346 347 347 347 346 346 344 343 342 342 342 341 341 342 342 341 341 340 340 339 338 338 338 337 336 337 337 337 337 335 330 326 324 323 322 320
325 325 325 325 324 325 326 326 326 326 326 325 325 325 325 326 327 327 328 326 325 325 325 325 326 329 330 329 326 324 327 332 332 328 328 330 327 325 327 332 336 340 343 343 344 346 347 348 348 347 344 344 344 346 346 344 343 343 343 342 342 341 341 340 341 341 340 339 339 339 338 338 338 337 336 336 336 336 336 336 333 331 329 327 327 326 323
324 325 325 325 325 325 325 325 324 324 325 326 326 325 325 325 325 325 326 327 327 328 327 326 325 327 330 331 331 329 330 333 333 332 331 329 325 322 324 331 336 338 338 339 341 342 343 345 345 344 343 342 342 343 343 342 341 341 340 339 339 340 340 340 341 341 340 339 338 338 338 338 338 337 337 337 337 337 337 336 334 332 330 329 329 328 325
325 326 326 326 326 325 326 326 325 324 324 325 326 325 325 324 324 324 324 325 326 327 328 327 327 327 329 330 331 332 333 334 336 334 331 330 328 325 322 326 334 336 333 332 337 340 340 341 342 342 341 341 341 340 339 339 338 338 337 338 338 338 339 340 341 341 339 338 337 338 338 338 338 338 338 338 337 337 337 336 335 333 331 330 331 329 326
325 325 325 326 325 325 325 326 326 326 325 325 325 325 325 324 324 324 325 324 324 325 326 327 329 331 331 330 330 332 333 335 337 335 331 329 331 331 325 324 330 335 331 327 330 335 337 339 340 340 340 340 339 337 336 336 335 336 336 336 336 336 336 339 340 339 338 337 338 338 338 338 337 336 336 336 336 335 335 335 334 333 332 331 331 329 328
323 324 324 324 324 324 323 324 325 325 325 324 324 323 324 324 324 324 325 325 325 325 325 326 327 327 328 330 331 331 332 332 333 333 331 329 330 332 330 328 332 334 331 327 327 331 335 338 338 339 340 340 338 336 335 335 335 335 336 335 333 333 334 336 337 336 336 337 337 338 337 336 335 334 334 334 333 332 333 333 332 331 331 330 328 327 326
324 324 324 324 324 323 323 323 324 323 323 323 323 323 323 324 324 324 325 325 325 325 325 325 327 327 326 327 328 328 329 330 331 330 330 330 329 329 330 330 332 334 333 331 330 331 334 335 333 334 338 340 337 336 336 335 334 334 334 334 334 333 333 334 335 335 336 337 337 336 335 334 333 333 332 332 331 330 331 331 330 329 330 329 327 326 325
324 325 324 324 323 323 323 323 323 323 323 324 323 323 323 324 324 324 325 325 325 325 325 325 327 327 326 327 327 327 327 329 329 329 330 330 329 329 329 330 331 333 334 334 332 332 335 335 333 334 337 338 337 336 335 333 334 335 334 334 335 336 335 335 335 336 337 336 335 334 333 332 332 331 331 331 330 330 330 329 328 328 329 328 328 326 325
324 324 324 324 323 323 323 323 323 323 323 324 324 324 324 324 324 325 325 325 325 326 325 325 326 327 327 327 328 327 327 327 328 328 329 330 330 329 329 330 331 332 333 334 333 332 333 335 336 336 336 336 337 336 335 334 335 336 336 335 336 336 335 335 335 335 335 335 334 333 332 331 331 330 330 329 329 329 329 328 327 326 327 328 327 326 325
322 323 323 323 323 324 324 323 323 323 323 323 324 325 325 325 325 325 325 326 326 326 326 326 326 327 327 328 328 327 328 327 327 328 329 330 330 330 330 330 331 332 332 332 332 331 332 333 334 334 334 334 336 336 335 334 335 336 336 337 336 335 335 335 335 334 334 334 333 332 331 330 330 330 329 329 329 328 328 328 327 326 326 326 326 325 324
321 322 322 322 322 323 323 323 323 323 323 323 324 324 324 325 325 325 325 325 325 326 326 326 326 327 328 328 328 328 327 327 327 328 329 329 330 329 329 330 330 330 331 331 330 330 331 331 332 333 333 333 334 334 334 334 334 334 335 334 333 333 334 334 333 334 334 334 333 331 330 330 330 329 329 328 328 328 327 326 326 325 325 324 324 324 323
321 321 322 321 322 322 322 322 323 323 323 323 323 324 324 324 324 325 325 325 325 325 325 325 326 326 327 326 327 326 326 326 327 327 327 328 329 329 329 329 329 329 330 330 329 329 330 330 331 332 332 332 332 333 333 332 332 332 332 332 331 331 333 333 332 332 332 332 331 330 329 329 329 328 327 327 326 326 326 325 324 324 324 323 322 322 322
321 321 321 321 321 322 322 322 322 322 322 322 321 321 322 322 322 323 323 323 323 323 323 323 324 325 325 325 325 325 325 325 326 326 326 327 328 328 328 328 328 328 329 329 327 327 329 330 330 331 331 330 331 331 331 331 330 330 331 331 331 331 332 332 331 331 331 330 329 329 328 327 327 326 325 325 324 324 324 323 322 322 322 322 321 320 319
320 320 320 320 321 321 321 321 321 321 321 321 320 320 319 319 320 320 320 320 320 320 320 320 321 322 323 324 325 325 325 324 325 325 326 326 326 326 327 327 327 327 328 328 328 327 327 327 327 326 325 325 327 329 329 329 329 329 329 330 330 331 331 331 330 330 330 329 328 327 325 325 325 324 323 323 323 322 321 320 320 319 319 319 319 318 318
320 319 319 319 319 319 319 319 319 318 318 319 319 318 318 318 318 319 319 318 319 319 319 318 319 319 320 321 323 324 325 324 324 324 325 324 324 324 325 325 325 326 328 328 328 327 325 323 322 321 320 320 323 326 327 328 328 327 328 329 328 328 329 329 329 328 328 327 326 325 324 323 323 322 322 321 321 320 320 319 319 318 318 318 317 317 317
320 320 320 320 319 319 319 319 318 318 318 317 317 317 318 318 318 318 318 318 318 318 318 318 318 318 318 318 319 321 321 321 322 323 323 323 323 323 322 321 321 324 326 327 327 326 324 321 319 318 318 319 320 323 325 326 326 326 327 327 327 326 327 327 326 326 326 325 324 323 323 322 321 321 320 319 319 319 319 318 318 318 318 318 317 317 316
320 319 320 320 320 319 319 318 318 317 317 317 317 317 317 317 317 317 317 317 317 317 318 317 317 317 317 317 318 318 318 318 319 319 320 321 322 322 320 319 319 321 324 326 326 326 325 323 321 320 319 319 319 321 324 324 324 324 325 326 325 325 324 324 324 324 324 323 322 322 322 321 321 320 320 319 319 319 318 318 318 317 317 316 316 315 315
319 319 319 319 320 319 318 317 317 317 317 318 319 319 318 317 316 316 317 317 317 317 317 317 317 316 316 317 318 318 317 317 317 316 317 318 320 319 318 319 319 319 320 323 325 324 323 322 321 320 320 319 319 322 324 324 323 323 323 323 323 323 323 323 323 323 322 322 322 322 321 321 321 320 320 319 319 318 318 318 318 316 315 315 314 314 313
319 319 319 318 318 318 318 318 318 318 318 319 319 318 317 317 317 316 316 317 317 317 317 317 316 316 316 317 317 317 317 318 318 317 316 317 317 317 317 319 320 318 317 321 323 323 321 319 319 319 319 319 321 323 324 323 323 323 322 321 320 321 321 322 322 322 322 322 321 321 321 320 320 320 319 319 318 317 317 316 316 315 314 314 314 313 313
318 318 318 319 318 318 318 319 319 320 320 319 318 317 317 317 317 317 316 316 316 316 316 316 316 316 316 316 317 317 316 317 317 317 316 316 317 316 316 318 318 317 316 317 319 320 320 320 319 318 319 320 322 323 323 323 323 324 324 322 321 320 320 320 320 320 320 320 320 320 319 319 319 319 318 317 317 316 316 315 315 314 314 314 314 314 313
319 318 318 318 318 318 319 319 319 319 319 319 319 318 317 317 317 318 317 316 316 316 316 316 316 316 316 316 316 316 316 316 316 316 316 316 316 316 316 316 316 316 315 316 316 318 320 322 321 320 320 322 322 321 321 322 322 323 324 324 322 321 320 319 319 318 318 318 318 318 318 318 318 317 317 316 316 315 315 315 315 314 314 314 314 314 314
321 320 319 318 318 318 319 319 319 320 319 318 317 317 317 316 317 317 317 316 316 316 316 316 316 315 315 315 316 316 316 315 316 316 315 315 315 315 315 315 315 315 315 315 315 316 318 320 321 320 321 321 320 318 318 319 320 320 321 322 322 321 321 320 319 319 319 318 318 318 318 317 317 317 316 315 315 315 315 314 315 315 315 314 314 314 314
319 320 319 318 317 318 318 318 318 319 319 317 316 316 316 316 316 316 316 316 316 316 316 316 316 315 314 315 315 315 315 315 315 315 315 315 315 314 314 314 314 314 314 315 315 315 315 316 317 317 318 318 318 317 318 318 318 318 319 319 319 320 320 320 319 319 319 319 319 319 318 317 318 318 317 316 316 315 315 315 315 315 315 315 314 314 314
Wind_Speed
23 22 20 18 16 16 17 18 20 21 22 24 22 19 19 16 12 11 10 8 10 13 17 15 10 8 6 8 10 9 6 5 7 3 9 12 12 13 12 11 12 12 11 10 11 13 14 16 21 24 26 30 31 31 32 34 34 34 34 35 35 35 35 34 34 36 37 36 37 36 35 34 34 33 32 32 32 32 33 32 31 31 29 32 37 37 36
22 24 24 23 19 17 18 18 19 20 22 23 23 20 22 23 19 16 14 11 12 13 16 18 14 9 7 6 8 11 12 12 12 7 9 12 12 13 10 9 10 10 11 10 10 12 13 13 18 21 23 27 30 30 31 33 34 34 34 36 35 34 34 33 33 34 34 34 34 35 34 34 34 34 32 31 31 32 34 33 32 32 32 31 35 37 36
16 23 25 24 23 20 19 18 19 21 22 23 22 20 21 21 19 19 18 15 13 12 12 15 15 12 10 8 9 11 11 13 14 13 13 14 13 14 11 9 10 11 11 11 11 12 13 14 18 21 23 25 27 29 29 32 34 34 33 35 35 34 34 33 32 32 32 32 32 32 33 32 32 32 31 30 29 30 32 33 32 32 34 33 33 35 36
12 17 22 24 23 21 21 20 20 23 23 18 17 17 18 17 15 16 17 15 12 9 10 12 12 13 14 13 13 12 8 10 14 14 15 14 10 13 15 14 13 13 14 13 13 14 14 15 19 22 23 24 25 28 30 32 34 33 32 34 35 33 32 31 30 31 31 30 29 30 30 29 29 30 29 28 28 28 29 32 32 31 32 33 32 32 33
10 14 17 18 18 18 17 17 19 22 20 16 15 17 19 19 16 12 12 11 8 8 10 12 12 14 15 14 13 11 8 8 9 10 13 13 10 10 13 15 15 15 14 14 14 15 15 17 22 25 26 25 26 29 29 30 32 31 30 32 34 32 31 30 30 29 29 28 27 27 28 27 26 26 27 27 26 26 27 28 28 28 29 31 31 31 31
10 14 15 13 14 14 12 12 17 21 20 20 20 18 18 19 16 13 13 12 9 8 9 11 12 12 12 9 8 10 9 6 6 7 9 11 11 10 9 12 15 15 13 13 14 16 20 24 27 27 27 27 28 28 27 27 30 30 28 30 31 30 30 29 29 29 28 27 26 25 26 26 24 24 26 26 24 23 23 24 24 25 26 29 30 30 29
9 11 12 14 14 12 10 10 13 17 20 22 21 20 20 16 11 12 15 16 14 11 9 10 10 10 13 12 8 9 11 11 11 12 11 9 8 8 7 8 12 15 14 13 14 17 22 26 26 26 27 26 27 28 27 27 29 28 26 28 29 29 28 28 28 29 28 26 25 24 24 25 23 23 23 23 22 22 22 24 25 26 27 27 27 28 27
8 9 12 13 10 9 12 12 10 13 18 20 19 19 20 15 8 6 7 7 9 11 13 15 12 11 14 14 10 9 12 13 15 16 16 13 12 11 10 9 9 14 15 15 17 20 23 25 26 26 27 28 27 28 28 27 27 26 24 27 28 27 27 27 26 26 26 25 23 22 22 22 21 21 20 21 23 23 22 23 24 26 26 25 26 26 25
8 10 11 9 8 10 12 10 6 5 10 13 11 9 10 8 5 6 9 11 11 8 5 8 8 8 12 12 10 13 17 18 17 18 18 16 16 15 13 13 10 15 20 21 22 24 24 26 27 28 28 29 29 29 29 28 26 24 23 25 26 26 26 25 24 23 23 24 22 21 21 21 19 19 18 19 21 23 22 21 21 24 25 25 25 26 24
9 10 10 9 11 10 6 4 2 2 3 2 1 2 3 3 9 9 7 8 11 12 11 9 7 6 7 9 10 15 20 20 18 19 19 19 20 18 14 14 14 15 22 24 25 27 26 26 28 29 29 30 29 27 28 29 27 24 22 23 24 23 24 24 23 22 22 23 22 21 21 20 18 17 16 16 18 20 20 19 19 22 25 24 24 25 24
9 11 10 9 10 6 1 1 2 4 4 4 4 1 5 4 11 10 7 7 8 9 10 10 9 8 6 6 6 10 14 15 16 18 19 21 23 19 16 17 16 16 22 25 26 26 25 25 28 30 30 30 29 26 26 29 27 23 22 23 23 22 22 22 22 21 21 22 21 20 20 19 18 18 16 15 16 18 18 18 18 20 23 23 23 23 23
8 9 9 8 7 3 4 4 3 5 4 4 1 5 3 6 10 9 7 7 7 8 9 8 6 6 6 6 9 10 8 11 16 16 12 12 15 15 15 13 9 17 22 23 22 22 23 25 29 31 30 29 26 24 25 26 25 23 23 25 25 24 24 24 23 23 22 22 22 21 20 19 18 18 17 15 16 17 18 18 17 18 21 22 20 20 21
9 9 8 7 4 3 8 8 5 4 2 1 3 5 1 6 7 8 8 8 8 8 8 7 5 6 7 8 13 16 15 15 15 11 4 4 5 12 16 11 13 17 17 18 19 20 24 27 28 29 29 26 23 23 23 22 22 24 27 28 27 27 26 25 24 23 22 22 22 19 18 18 17 16 16 14 15 17 17 17 16 16 18 18 17 18 21
9 8 7 6 5 4 7 9 7 6 5 2 2 2 3 5 7 9 10 10 11 10 9 8 7 9 11 12 13 16 19 17 13 9 4 4 8 12 12 17 21 15 13 16 19 20 23 26 27 29 28 24 22 23 21 20 23 28 30 29 28 27 26 24 23 21 20 20 20 17 16 17 16 14 14 13 14 16 16 16 17 16 17 18 17 17 19
8 8 8 8 7 6 10 11 8 5 3 2 2 3 5 7 10 12 11 12 14 14 13 12 12 12 12 13 13 14 18 15 8 8 7 1 6 5 1 13 18 15 12 12 15 19 22 25 27 28 26 23 22 22 21 23 27 30 30 29 28 26 26 25 24 22 21 21 21 18 17 18 16 14 13 12 13 15 16 17 18 16 16 19 19 17 17
9 10 9 6 3 6 10 8 5 5 4 4 5 5 6 8 9 9 8 10 12 13 14 16 17 15 12 13 12 12 16 14 4 4 8 4 4 6 5 7 11 13 11 11 14 18 22 24 25 27 27 25 22 21 23 27 30 30 30 30 28 26 25 25 24 23 22 22 21 18 18 17 15 14 13 13 13 16 16 17 17 16 16 19 19 16 16
5 4 3 1 3 6 8 6 8 9 8 7 7 7 6 6 7 7 7 8 9 10 12 14 16 15 13 12 13 13 13 10 5 8 12 11 6 2 6 8 10 11 10 10 14 16 18 22 24 25 27 27 22 22 26 30 31 30 30 29 27 25 24 24 23 22 21 21 19 17 17 17 15 15 15 13 13 15 15 16 16 16 16 17 16 15 15
7 7 5 5 5 5 9 9 9 9 8 8 9 9 8 6 7 7 8 9 10 11 11 10 10 11 13 14 14 14 14 12 11 11 12 14 15 11 6 3 4 12 14 13 14 14 16 21 23 23 26 27 24 24 28 29 29 29 28 27 26 24 24 23 23 22 21 19 18 17 16 16 14 15 15 14 13 14 14 15 15 14 14 15 16 16 17
4 5 6 9 9 4 6 9 8 9 10 10 9 9 9 9 10 10 10 11 12 14 14 12 10 11 14 14 13 12 13 12 12 10 9 11 15 16 16 19 16 4 7 10 11 12 14 19 22 23 25 26 25 26 26 27 27 27 27 26 24 23 22 22 22 21 20 19 18 16 15 14 13 12 12 12 12 12 12 12 12 12 12 13 15 17 18
3 6 6 11 14 12 10 9 8 10 11 12 12 11 11 12 13 14 15 15 14 14 15 14 12 12 13 13 13 12 11 10 10 9 7 11 12 12 12 14 16 12 6 5 7 9 10 15 20 24 24 25 25 25 25 25 24 24 23 23 21 20 21 20 20 20 19 18 17 16 14 14 13 11 9 8 10 10 10 10 11 12 13 15 16 18 21
6 9 7 8 12 14 13 11 10 10 11 13 14 14 14 15 15 15 16 16 15 16 16 15 14 13 12 13 13 13 11 10 10 10 7 10 11 10 10 8 6 4 7 8 9 10 12 15 20 23 25 25 25 24 23 23 23 23 23 22 20 20 20 19 18 17 17 17 18 18 17 16 14 10 7 6 8 9 9 10 11 13 15 16 16 19 23
5 5 5 4 6 9 10 11 12 13 12 13 15 15 15 16 15 15 16 16 16 18 18 17 16 14 12 13 13 11 10 8 9 9 6 9 10 10 8 2 3 3 10 14 14 14 16 19 20 22 24 24 22 22 22 22 23 24 23 21 19 18 18 17 17 16 15 18 20 20 19 18 16 13 10 8 8 8 9 11 12 14 15 16 17 19 23
3 4 3 4 6 8 8 9 12 12 11 13 15 15 15 15 15 15 17 16 16 17 17 18 18 17 14 12 11 9 8 7 7 7 4 6 6 7 9 8 6 5 11 15 16 16 17 19 20 21 22 21 20 20 20 19 21 22 21 20 18 17 17 19 19 17 16 19 21 20 19 18 18 17 15 12 9 8 10 12 13 14 16 17 17 17 20
2 4 4 4 8 10 9 10 12 11 10 12 14 14 13 14 14 15 16 16 15 15 15 16 17 18 17 15 13 12 10 7 4 3 2 6 6 9 13 11 9 11 13 16 17 17 17 19 20 20 21 20 19 18 18 17 18 18 18 17 15 15 18 22 22 18 18 19 18 17 17 17 17 17 17 15 12 11 11 12 14 15 17 17 15 15 18
1 5 6 5 8 11 11 10 11 11 11 11 12 12 12 11 12 13 14 14 14 14 15 14 15 18 19 17 17 16 14 12 12 11 9 11 12 15 17 17 16 15 15 17 18 18 19 20 20 20 20 19 18 17 16 16 15 14 13 13 15 17 21 23 21 19 19 18 16 14 14 14 14 14 14 13 12 12 13 13 14 15 15 16 16 16 18
2 4 8 9 8 9 10 10 10 11 11 10 10 10 9 10 10 11 12 12 12 14 14 13 13 16 18 17 17 17 16 17 21 21 17 15 16 17 17 17 18 17 17 17 18 17 18 18 18 18 18 17 17 17 16 14 12 11 11 16 19 19 19 20 19 19 18 16 15 13 13 13 13 14 14 13 14 14 13 12 13 13 14 16 17 18 19
7 4 5 9 10 10 11 10 10 10 10 10 10 9 8 8 8 9 10 11 12 14 15 14 13 13 15 16 17 18 18 18 20 19 18 17 18 19 19 18 18 18 17 17 16 15 16 15 15 15 15 15 16 16 15 14 13 13 14 15 16 17 19 20 19 18 16 14 14 13 14 14 15 15 14 15 16 15 13 12 12 12 13 15 17 17 18
9 9 9 9 10 11 10 9 10 10 10 10 10 9 9 9 10 11 12 11 11 12 14 16 15 13 11 13 14 14 15 16 17 16 17 19 21 23 23 20 19 17 16 15 14 14 14 14 13 13 13 13 14 15 15 16 15 14 14 13 12 15 19 19 18 16 16 16 15 14 14 15 14 14 14 15 16 15 14 14 14 13 13 15 16 15 15
9 10 10 10 11 12 10 9 10 11 10 10 10 10 10 10 12 13 13 12 11 10 11 14 15 13 11 11 12 11 11 12 14 16 18 20 22 25 24 22 21 20 19 17 15 14 14 13 12 11 11 11 13 14 14 15 16 15 14 13 13 13 14 16 17 17 17 17 16 15 15 15 15 14 15 16 16 16 16 15 15 15 15 17 17 16 15
9 9 10 12 14 14 13 11 11 10 10 10 11 11 11 12 12 12 12 11 10 9 9 10 12 12 11 10 11 11 9 10 12 15 18 20 22 23 24 23 21 18 17 17 16 13 12 11 10 9 8 9 10 11 11 12 15 15 15 14 14 13 12 14 17 17 16 16 17 16 15 14 14 14 14 14 15 15 15 16 15 15 15 16 15 14 15
11 12 13 13 13 13 12 10 9 10 9 10 10 11 11 12 12 11 11 10 8 7 7 8 8 9 9 9 9 10 10 10 12 13 16 20 22 22 22 21 17 13 13 16 18 15 11 9 7 6 7 9 10 10 10 11 13 14 15 16 16 15 13 14 16 16 15 15 16 16 14 13 13 13 12 12 13 14 14 15 14 14 14 14 13 12 15
12 13 13 12 10 10 10 8 8 9 9 9 10 10 10 10 11 11 10 9 8 7 8 8 7 7 7 8 8 8 8 9 10 11 14 18 22 22 22 21 19 16 17 20 22 19 13 8 6 5 5 10 11 9 10 11 11 13 15 17 18 17 15 14 14 14 14 15 15 13 12 12 13 13 12 12 12 13 14 13 12 12 13 13 12 13 16
10 10 10 9 8 8 8 7 6 7 8 8 9 9 8 9 10 10 9 9 9 7 7 6 5 4 4 6 6 7 7 6 6 8 12 15 16 18 20 22 19 15 15 18 21 21 16 10 7 6 3 8 9 8 9 10 10 12 14 15 15 16 15 13 14 14 13 13 13 11 12 13 12 12 12 12 11 12 12 12 12 12 11 10 12 16 18
9 8 8 7 7 7 7 7 6 6 7 7 7 8 8 9 9 9 8 9 9 8 8 6 4 5 6 5 3 3 5 4 3 5 8 8 8 8 11 14 13 10 10 13 17 18 16 12 8 8 5 1 5 7 8 7 6 9 12 12 12 13 13 13 14 13 11 11 12 11 12 12 12 12 12 12 12 12 13 13 13 12 9 9 11 16 18
10 10 9 8 8 8 8 8 7 6 7 7 7 7 7 7 8 8 8 8 8 8 8 8 7 4 4 5 5 5 6 5 3 4 5 1 3 3 4 6 7 3 7 6 9 11 11 10 9 8 6 5 6 4 4 4 4 7 9 10 11 11 11 12 12 10 9 10 11 10 9 10 12 13 12 11 11 11 11 11 11 11 12 13 14 17 17
10 9 8 7 8 8 8 8 8 8 7 7 7 7 7 8 8 8 8 8 9 8 8 8 9 9 7 6 6 6 7 7 7 6 4 2 3 6 6 6 7 1 6 6 6 8 8 10 10 7 5 5 3 1 3 3 5 7 7 7 8 10 10 10 9 8 9 10 10 8 8 10 12 12 11 9 9 9 10 9 8 9 13 14 13 15 16
10 9 7 6 7 8 8 7 8 8 7 7 7 7 7 8 8 8 8 9 9 8 8 8 8 9 9 10 10 10 10 9 8 6 5 5 5 6 7 9 10 7 5 6 8 9 8 9 8 5 5 5 2 3 2 2 5 6 5 5 6 8 9 9 9 9 9 9 9 10 11 11 11 10 9 8 7 7 9 9 8 9 14 16 14 12 13
9 9 8 7 7 7 7 8 10 10 9 8 8 8 9 9 9 9 9 9 9 8 8 9 9 9 10 10 10 11 11 10 8 7 6 5 5 5 5 6 8 8 6 6 8 7 7 8 7 4 4 5 6 6 3 2 4 5 3 4 6 8 9 9 10 10 9 9 10 11 10 10 9 8 7 8 8 7 8 9 8 8 11 15 14 12 10
9 9 8 8 7 7 8 10 11 11 10 8 8 9 10 10 10 10 10 10 9 9 9 9 9 9 8 8 8 9 10 11 10 9 8 7 5 6 7 7 7 7 7 7 7 7 8 9 6 5 6 6 6 6 4 3 4 4 2 3 5 7 8 9 10 11 10 10 11 10 9 9 9 8 7 7 7 7 8 8 7 8 9 11 13 13 10
8 8 8 8 8 8 9 10 11 11 11 11 10 10 11 11 11 11 11 11 10 10 10 10 9 8 7 6 5 7 8 10 10 11 10 8 6 6 7 7 8 8 8 8 7 9 11 9 6 7 7 6 6 6 6 4 4 3 2 2 4 6 7 7 9 12 12 11 10 9 9 10 9 7 7 8 7 7 8 8 8 9 9 9 11 13 12
8 8 9 9 9 9 9 9 10 11 12 12 12 12 13 13 12 11 10 10 10 9 9 10 9 8 9 9 8 8 9 10 11 12 11 9 7 6 5 6 8 10 11 9 8 9 11 12 11 9 8 7 7 7 6 5 4 3 2 2 2 5 6 7 8 10 10 10 10 10 11 12 10 7 7 9 8 7 9 10 10 11 12 11 11 12 14
9 9 9 9 9 9 10 10 10 10 11 12 12 13 14 13 13 13 11 10 10 9 9 9 9 9 8 9 10 10 10 10 10 11 13 12 10 7 5 6 9 12 12 11 8 8 9 10 11 10 9 8 8 8 7 5 3 2 2 2 2 3 5 6 6 7 8 8 8 7 8 9 9 8 8 9 9 8 9 9 8 8 10 11 9 8 10
9 9 8 7 8 9 10 10 9 9 10 10 12 12 13 13 13 12 11 11 11 12 12 12 11 9 8 7 7 8 8 9 9 9 10 12 13 11 8 8 10 12 13 12 10 10 10 9 9 9 9 7 7 8 8 5 3 2 3 4 3 3 5 5 5 5 5 4 4 6 8 8 8 9 9 10 11 10 8 6 5 5 6 7 7 6 6
9 8 8 7 8 8 8 9 9 8 8 9 10 11 11 11 10 9 9 9 9 10 10 10 11 10 8 7 7 5 5 6 9 8 6 7 10 11 10 9 9 10 11 10 9 9 9 9 8 8 8 6 5 6 8 5 3 3 3 3 3 2 4 4 4 5 6 4 4 8 10 10 10 10 9 8 9 9 8 7 7 7 5 5 6 7 8
8 8 9 9 8 7 7 7 8 8 9 9 9 9 9 10 9 8 8 8 7 7 9 9 8 8 9 8 7 6 6 7 9 8 5 5 5 6 8 9 9 9 8 8 8 7 8 8 8 8 8 7 5 7 8 5 2 3 3 1 3 3 3 4 5 6 9 9 9 9 9 8 7 9 8 5 5 7 7 7 8 9 9 10 10 10 8
8 9 9 9 8 7 7 8 9 10 10 9 8 8 9 10 9 7 6 6 5 5 7 9 8 7 8 8 8 9 10 9 10 9 7 5 7 7 7 9 10 9 7 6 6 6 5 6 8 8 8 7 7 9 10 6 1 3 1 1 2 3 3 4 4 5 6 6 5 5 4 4 4 6 7 6 6 7 7 7 8 9 9 9 8 7 3
8 8 8 8 8 7 7 8 10 10 9 6 5 6 9 11 10 9 9 10 10 5 3 6 8 9 10 11 12 11 10 9 10 12 13 7 6 8 9 11 12 12 9 4 4 5 4 5 7 8 8 7 7 8 10 9 4 0 2 4 4 4 3 3 3 3 3 4 3 3 4 5 6 7 8 10 9 8 9 10 12 10 6 4 3 3 1
7 6 7 8 9 8 7 8 9 8 6 5 6 6 7 8 8 7 9 13 12 7 3 6 10 13 13 13 13 13 11 9 8 9 12 12 12 13 13 11 11 13 12 5 1 3 5 6 6 6 5 5 5 6 8 9 10 9 8 4 2 4 5 5 6 6 5 6 7 7 8 9 10 11 11 11 11 11 11 12 10 8 6 6 7 6 5
6 7 10 11 11 11 10 9 8 7 7 9 9 9 8 6 6 6 7 10 11 10 8 10 12 12 11 10 10 12 13 11 8 7 9 10 11 12 12 10 11 13 13 9 6 6 6 4 4 5 4 3 3 4 5 6 6 8 10 10 7 4 4 3 4 5 6 8 9 10 9 9 10 12 11 10 10 11 11 10 9 8 8 8 8 7 6
8 9 10 10 10 11 12 10 8 8 10 11 12 12 12 9 7 8 9 9 9 9 8 8 8 10 10 9 9 11 13 12 11 11 11 11 9 9 10 11 12 12 12 11 12 10 5 3 2 2 3 3 3 3 3 3 4 5 7 9 8 8 7 5 3 1 2 4 7 9 9 9 11 12 11 10 10 9 8 8 9 10 10 9 9 9 9
8 8 7 8 10 11 11 10 9 9 10 11 11 11 11 10 8 9 10 10 10 10 9 8 9 12 13 11 8 9 10 11 11 11 12 12 12 12 12 12 13 13 13 12 13 12 8 4 5 4 4 6 7 6 4 4 5 4 5 5 6 7 9 9 7 6 6 7 7 6 6 7 8 8 8 10 11 11 9 8 8 8 8 8 9 10 10
8 8 8 9 10 11 10 9 9 8 8 8 9 9 9 9 9 9 10 10 9 9 9 8 9 12 14 13 11 10 10 11 11 11 10 11 13 14 13 12 13 14 13 12 12 11 10 10 11 10 8 8 10 13 12 8 5 4 3 4 4 6 7 7 7 8 9 9 9 8 8 9 9 9 8 8 9 10 10 11 11 11 10 10 10 11 11
Wind_Direction
229 236 245 242 220 212 221 218 212 215 225 234 232 224 226 230 235 237 224 213 227 247 259 251 226 213 204 163 170 202 217 238 261 233 146 161 161 152 161 171 173 181 184 178 178 183 185 187 190 192 192 192 193 196 197 197 197 196 193 192 191 189 191 195 195 196 197 198 199 199 200 200 200 200 201 200 198 195 194 195 197 200 198 194 195 196 196
219 226 238 248 244 227 220 220 221 217 215 225 237 235 228 230 236 238 234 230 228 235 248 254 257 255 233 197 183 192 191 205 234 228 176 175 165 154 164 177 180 185 184 179 180 181 183 185 188 191 192 192 194 196 196 195 197 197 192 190 191 190 190 194 195 194 195 196 197 198 198 199 199 200 200 201 200 197 197 198 199 200 198 194 194 195 195
225 221 223 234 246 249 240 230 230 235 226 213 220 235 236 234 236 233 233 238 238 233 234 242 250 255 254 248 232 218 198 197 217 229 221 206 174 159 173 185 185 191 189 186 183 180 184 187 188 191 193 193 195 197 197 196 196 196 191 188 190 190 190 192 192 191 192 194 195 196 197 197 198 198 200 201 202 201 199 198 199 199 196 195 195 195 196
240 227 218 218 229 243 250 243 234 240 241 221 210 222 232 240 246 235 229 232 233 230 233 234 234 238 246 248 245 243 230 210 214 219 224 223 190 170 180 185 186 190 191 190 186 184 187 187 187 191 191 191 195 199 199 198 196 196 191 187 188 189 188 188 188 188 189 190 192 193 193 194 195 197 200 202 204 204 200 198 199 198 195 195 195 195 196
239 237 228 220 221 228 236 238 236 238 241 236 230 223 217 223 238 245 242 241 235 223 227 233 233 234 237 237 239 247 244 229 230 225 218 222 218 198 184 178 182 189 190 190 189 185 184 186 189 191 189 189 194 200 201 198 196 196 191 186 186 185 184 184 183 184 184 185 187 188 188 189 191 194 198 201 204 204 199 197 199 199 197 196 195 197 197
233 236 236 235 233 231 228 226 233 240 240 235 236 237 227 217 218 228 236 242 248 240 235 241 244 246 251 245 229 239 251 251 259 258 234 218 219 222 203 181 180 184 187 188 187 185 186 188 191 190 189 190 193 197 200 198 197 197 190 183 182 180 178 179 178 179 180 181 182 183 183 185 188 193 196 199 203 202 197 195 197 200 200 199 198 199 198
231 229 229 233 231 233 242 237 228 237 247 246 244 248 247 238 233 240 237 232 232 233 241 255 259 262 270 270 247 233 247 254 254 257 253 238 228 234 236 210 182 177 183 185 183 186 187 187 188 186 187 190 190 193 197 197 199 199 187 176 177 175 172 172 173 175 176 176 177 177 179 182 187 193 196 199 201 199 195 196 198 201 204 203 203 201 199
226 220 220 230 238 241 249 249 236 231 239 244 246 248 249 250 269 311 314 284 255 233 224 227 231 237 248 260 260 241 242 251 254 253 252 251 252 247 245 243 201 174 179 184 182 185 184 181 182 183 185 188 189 191 194 195 197 197 182 171 171 170 167 168 168 168 170 170 170 172 174 179 187 193 195 199 202 201 200 199 197 200 205 207 207 204 201
222 229 223 232 250 246 239 241 247 250 243 237 237 251 261 270 309 3 7 345 328 321 278 236 235 239 235 237 238 234 237 243 248 254 256 255 257 254 246 248 227 183 179 184 181 178 177 178 180 182 183 185 187 189 191 192 192 188 175 168 168 166 166 166 164 162 164 167 168 170 174 179 186 190 193 198 201 203 204 200 195 196 200 204 207 205 202
209 226 229 232 234 228 220 215 178 39 339 279 107 333 293 10 31 24 6 343 339 347 349 346 349 331 271 242 225 220 225 231 236 245 250 250 254 256 245 242 238 202 182 179 174 171 173 179 181 180 180 182 183 185 187 186 185 180 170 165 164 163 164 164 163 163 165 167 169 172 178 180 179 183 191 198 200 200 201 198 194 195 197 200 203 203 201
204 219 224 225 229 219 149 179 130 77 24 28 61 280 259 39 39 25 13 358 345 345 347 351 356 344 308 280 254 224 217 226 238 240 238 237 239 243 244 242 231 198 175 167 166 168 172 177 179 177 177 180 181 182 182 181 180 175 165 161 161 162 162 162 162 162 163 166 168 173 179 179 178 182 188 195 199 200 200 200 198 197 197 198 198 197 196
212 222 228 227 238 215 152 156 104 74 39 17 43 224 246 23 24 19 22 9 353 353 351 344 332 316 309 306 302 289 261 247 251 248 245 241 229 225 243 248 199 164 160 157 161 168 172 176 178 174 174 178 181 180 177 175 172 166 160 158 159 161 162 162 162 163 164 166 167 170 176 179 180 182 184 190 198 197 198 203 203 197 193 193 189 185 184
214 223 232 234 243 183 162 167 149 123 104 3 238 220 280 9 359 6 9 355 355 360 346 333 320 306 306 307 306 302 291 275 270 269 286 340 300 251 237 204 146 144 152 153 160 170 173 175 175 171 172 175 174 172 172 170 164 157 156 156 158 160 162 161 161 162 162 163 164 167 174 178 180 180 181 189 196 193 192 196 191 182 182 184 180 176 179
213 224 233 234 232 199 181 178 166 165 175 178 219 253 11 8 4 9 1 352 355 350 336 326 315 307 311 313 306 295 286 291 310 319 320 25 350 295 234 164 144 149 155 155 164 171 171 173 171 168 169 168 163 163 165 161 155 151 151 153 155 155 155 154 153 154 153 155 160 166 172 176 178 178 180 188 191 187 186 186 181 178 179 181 181 181 183
210 218 221 233 232 190 182 186 175 169 178 120 43 7 21 29 26 20 9 4 1 348 338 330 317 311 314 314 311 300 288 289 324 332 300 26 59 14 151 143 145 150 150 158 170 169 167 168 166 163 162 157 154 158 156 151 149 147 146 147 149 149 149 149 150 151 152 156 162 168 171 172 173 174 179 185 185 182 180 178 179 183 183 182 185 186 187
214 217 218 238 243 168 173 180 144 110 100 76 50 34 38 35 29 25 16 10 3 349 337 327 316 310 305 299 304 307 291 277 273 342 322 323 116 127 129 133 144 148 151 162 165 161 162 162 158 157 155 150 148 150 147 144 144 142 142 144 146 148 149 148 147 148 152 158 163 166 167 168 167 167 173 179 177 176 176 176 179 182 179 179 183 186 185
203 221 229 170 123 149 153 130 103 103 94 73 63 62 58 44 32 30 23 11 2 349 337 325 314 313 319 322 327 331 320 312 357 23 1 348 341 170 151 142 144 150 154 152 146 146 149 147 145 148 148 145 142 140 139 140 140 140 142 144 144 145 145 145 145 147 151 157 160 161 164 166 163 160 164 167 165 167 173 175 178 180 178 175 174 169 162
93 52 32 64 90 139 143 128 124 122 100 78 73 68 56 47 41 36 30 24 18 11 7 357 337 338 354 360 358 359 359 3 19 29 23 13 8 12 17 359 171 157 148 139 135 133 131 129 131 136 138 136 133 133 135 138 139 140 140 140 141 143 143 144 147 149 149 152 153 152 155 157 155 155 161 164 163 167 174 175 176 180 180 176 170 157 147
114 64 38 46 47 70 125 122 111 95 86 83 83 81 73 64 57 52 47 43 37 31 30 27 15 7 8 5 1 6 11 10 10 21 44 44 35 34 22 355 341 357 124 126 126 122 121 124 125 124 125 126 128 130 133 135 135 136 137 137 137 138 139 141 144 146 146 146 144 144 144 143 141 145 159 171 173 174 179 180 178 179 178 176 171 159 148
101 100 78 61 57 58 72 93 94 80 75 75 74 79 86 81 71 62 54 49 44 39 35 32 25 18 13 7 2 4 9 10 359 359 41 64 57 58 54 19 354 352 24 67 95 103 112 122 123 120 121 125 127 128 130 133 133 131 130 130 128 128 132 136 139 142 144 142 138 136 133 130 130 135 149 171 181 185 193 195 190 185 182 183 179 166 157
98 88 69 61 65 61 59 73 90 86 80 77 72 71 74 74 71 66 60 54 49 44 39 34 29 21 11 8 12 10 5 3 350 340 15 70 71 62 57 39 10 34 78 86 92 95 100 111 117 119 121 122 123 124 127 130 127 121 121 123 123 124 130 133 134 136 138 136 133 130 126 125 127 129 132 148 166 181 193 196 192 190 186 183 180 171 166
138 92 59 50 72 72 58 60 78 88 91 87 79 73 69 66 66 67 65 59 51 47 42 34 32 30 19 13 20 18 357 335 315 315 359 59 68 64 63 39 255 150 109 104 103 101 104 109 112 113 113 114 117 119 122 125 125 125 127 127 128 133 138 140 142 142 134 129 130 130 128 128 126 122 121 131 149 167 176 175 179 184 179 171 172 173 170
98 97 90 73 85 93 77 61 69 80 84 85 83 79 75 71 67 65 65 59 50 47 43 35 33 35 29 23 28 26 6 340 311 308 9 66 89 118 134 165 188 134 101 97 97 99 103 106 106 104 105 109 112 114 119 125 128 132 135 137 144 151 149 146 149 146 128 123 130 132 131 131 129 125 120 118 124 146 162 165 169 172 166 159 162 171 174
54 95 88 74 90 98 88 71 68 66 63 71 76 74 74 75 71 68 68 62 53 50 45 36 32 32 28 28 32 31 29 27 355 323 85 104 118 120 111 104 92 79 73 74 78 81 86 90 92 94 98 102 106 111 118 125 130 138 148 153 154 150 140 138 142 136 121 120 128 131 129 132 135 132 125 115 110 118 136 149 157 161 160 158 158 167 179
124 120 106 95 101 104 98 82 72 67 63 64 66 61 58 62 67 71 74 69 60 55 50 40 33 31 28 26 26 24 23 19 9 10 37 56 57 65 72 72 70 70 70 70 71 73 76 80 85 90 94 98 102 107 115 124 133 146 152 138 124 120 123 128 129 123 119 122 128 131 135 139 141 141 138 132 125 119 118 124 135 144 152 160 166 168 174
25 137 137 129 114 101 96 86 73 68 67 67 70 68 59 53 54 62 72 76 70 62 55 47 39 37 36 31 25 22 20 13 9 12 24 35 38 43 52 58 62 67 71 73 75 79 83 86 89 95 100 105 109 112 116 122 128 130 118 110 113 119 123 124 120 118 122 129 133 140 151 154 154 158 160 156 150 142 131 124 125 128 134 147 160 167 168
27 36 103 112 96 78 76 80 79 75 69 65 67 71 70 67 61 58 64 72 75 71 64 55 46 42 42 40 32 26 20 14 10 14 21 24 25 29 37 49 58 62 66 70 73 81 89 93 95 98 101 105 109 111 115 117 117 113 106 109 119 126 124 123 124 127 134 142 143 149 159 164 166 169 167 162 160 160 155 147 141 135 131 138 151 160 164
43 42 53 77 84 77 74 83 88 83 76 70 67 65 67 68 64 57 52 49 55 65 64 57 50 44 40 40 39 34 25 16 10 11 17 19 17 17 24 39 50 52 56 61 64 70 80 87 91 95 101 108 112 115 118 118 114 112 111 116 126 129 129 132 137 143 149 152 151 154 161 168 170 164 158 160 165 167 166 161 152 144 138 138 141 147 153
54 53 51 59 67 62 55 60 71 71 68 67 64 59 60 62 60 57 51 41 36 42 49 51 51 47 40 37 39 38 33 25 14 5 6 12 15 13 15 27 37 39 39 40 43 53 67 77 83 91 103 114 120 123 126 126 124 125 127 128 129 133 140 146 146 147 149 150 150 154 160 163 161 156 157 164 168 167 166 161 148 139 139 141 139 139 145
65 62 58 56 57 55 48 48 55 57 56 61 62 57 57 60 61 60 57 51 43 39 40 46 47 44 39 38 41 41 39 33 24 10 3 8 15 13 10 17 27 31 29 24 21 30 52 68 79 90 98 107 116 123 128 132 133 132 133 137 140 144 148 144 140 140 143 144 147 155 161 161 158 158 162 166 163 159 154 149 140 136 143 149 149 147 149
72 69 67 61 57 57 54 50 49 49 48 53 58 57 57 60 63 64 63 62 61 57 55 52 47 40 32 27 33 43 39 27 23 18 8 7 12 10 7 11 19 22 19 16 11 10 22 44 57 68 88 106 118 127 133 134 129 123 122 127 132 134 131 127 128 134 140 144 149 157 161 161 159 159 159 157 153 149 146 144 142 142 148 156 158 157 158
79 74 72 71 69 68 65 60 56 55 53 51 52 53 55 58 61 64 64 63 67 74 74 69 60 46 31 14 8 21 27 18 17 23 21 15 12 6 0 2 7 9 11 14 14 11 12 17 15 24 88 120 126 128 135 136 129 121 120 120 122 125 127 129 133 139 146 152 159 162 162 162 161 159 157 157 154 150 149 151 147 144 152 162 164 162 166
77 75 73 74 76 77 78 79 75 67 61 55 50 49 51 55 59 62 62 64 66 69 76 91 113 112 72 42 18 18 30 30 22 32 35 26 13 4 358 355 358 6 8 7 9 15 20 17 356 352 59 130 139 143 152 157 149 137 131 126 125 130 137 140 144 149 154 160 166 167 164 163 160 156 153 156 158 157 157 159 159 158 161 165 163 166 172
77 82 78 69 64 66 74 86 99 103 91 76 63 55 53 55 56 54 52 56 57 53 54 74 126 162 154 139 125 85 71 62 35 45 49 29 0 360 360 348 349 17 29 3 353 3 15 13 356 353 359 219 193 177 168 164 144 125 123 125 130 139 145 148 152 158 162 162 162 164 163 158 154 154 158 162 166 167 163 163 166 164 148 125 137 159 168
78 79 75 68 61 59 63 68 71 74 73 71 71 68 64 64 65 59 53 51 48 45 46 44 43 62 112 140 152 138 117 108 99 91 91 60 320 348 359 324 317 37 78 36 345 348 360 353 340 343 344 305 260 213 168 156 137 122 122 132 144 152 156 158 161 165 162 154 154 162 165 154 148 151 157 157 156 158 159 162 165 152 126 113 128 151 161
73 71 69 68 65 64 66 67 65 62 57 57 64 68 66 66 65 62 59 55 47 46 49 39 29 33 46 54 61 71 82 98 107 103 99 83 16 11 13 349 327 348 118 93 12 352 353 345 332 322 315 306 284 177 139 160 169 161 149 148 156 162 163 164 164 157 148 148 154 155 146 136 135 141 148 151 152 153 155 162 166 143 126 123 133 144 151
74 72 70 70 70 72 74 73 73 75 69 62 60 61 63 69 70 66 67 65 53 47 52 49 40 36 36 38 46 49 49 58 74 72 66 71 51 25 20 11 359 8 70 61 8 352 355 355 344 323 312 329 19 95 110 150 158 156 160 170 174 175 172 167 157 144 139 145 150 141 131 128 131 138 148 155 158 158 159 166 171 148 132 133 139 142 149
77 77 76 74 72 76 77 75 75 75 72 67 63 57 55 61 66 66 66 61 47 40 46 50 48 45 37 34 42 46 40 37 44 50 56 69 64 46 42 30 13 14 26 9 349 352 2 357 351 355 5 15 42 66 76 113 122 124 159 191 183 174 169 159 147 141 141 146 146 145 145 146 147 156 166 165 163 168 170 172 176 163 144 142 147 150 158
86 86 88 87 82 73 67 66 66 68 71 74 74 68 62 60 61 62 62 55 43 39 43 46 46 48 44 39 43 45 37 31 32 35 40 50 59 60 60 54 39 27 14 355 354 9 7 353 356 32 42 38 47 51 51 81 106 110 150 188 170 161 160 153 141 138 144 150 151 152 153 153 156 165 168 157 154 160 159 160 174 179 167 159 159 159 161
84 82 82 81 78 73 68 64 60 60 64 68 72 73 72 67 63 62 61 56 47 42 40 39 39 35 26 30 52 60 47 38 37 39 42 49 63 70 64 53 43 36 25 15 17 18 12 14 41 60 50 43 47 46 43 58 87 102 117 141 144 146 150 152 148 145 146 152 157 153 145 146 156 164 152 142 148 160 157 158 174 177 168 169 175 171 168
75 73 71 71 71 72 75 78 76 72 70 70 73 76 78 77 74 72 68 64 61 59 54 51 51 38 17 13 31 54 55 50 46 44 45 50 58 66 60 42 32 28 24 22 26 28 27 36 49 49 39 40 44 37 33 46 70 92 106 113 142 146 147 156 163 157 152 160 172 172 161 157 163 169 155 147 156 171 173 179 192 187 174 176 181 171 167
78 73 72 74 77 77 75 75 77 76 72 68 65 64 66 71 76 77 73 65 60 56 52 53 63 67 51 32 30 37 46 51 52 50 50 52 55 57 53 36 28 25 21 18 26 40 44 45 45 39 33 39 41 28 23 37 65 92 107 108 122 145 148 153 158 156 159 172 179 169 152 149 156 167 170 167 173 186 190 192 198 188 175 177 181 171 170
77 76 73 71 75 81 81 78 74 69 67 69 70 65 60 59 60 66 74 71 61 51 42 34 35 50 67 68 55 43 42 51 59 61 59 58 55 53 49 38 30 27 22 19 26 42 44 37 35 31 25 30 36 23 16 28 61 85 95 99 98 118 137 140 134 132 146 172 166 144 145 155 166 175 184 185 182 184 186 182 180 179 176 183 195 200 198
77 83 85 80 77 80 83 83 82 76 67 66 69 71 72 68 58 52 58 65 68 71 67 48 29 25 34 50 64 68 61 62 69 74 74 66 57 53 51 45 35 30 28 29 38 48 41 27 21 20 15 19 34 21 10 19 57 68 78 108 121 111 120 135 147 150 160 186 193 173 176 187 186 181 189 196 183 172 170 171 177 186 192 198 212 220 216
81 82 84 83 82 80 74 75 87 96 93 80 65 60 73 83 77 60 50 46 50 71 82 74 53 34 25 27 44 62 68 74 79 78 74 75 67 57 53 50 41 34 38 43 47 48 37 24 22 21 11 7 10 0 351 359 65 61 40 94 161 163 157 169 189 188 187 197 202 192 192 201 184 164 169 188 189 181 184 186 188 197 205 210 218 224 217
80 80 81 83 85 81 71 66 70 76 80 78 63 49 53 61 61 59 58 43 27 51 81 86 77 57 33 25 34 42 42 51 58 47 39 85 120 110 83 67 53 38 38 52 57 52 33 13 12 14 6 358 355 344 333 328 132 134 118 127 154 169 178 183 191 193 191 197 198 181 174 184 172 158 167 188 202 203 205 207 210 213 213 211 219 228 210
84 89 93 98 102 97 86 77 73 68 64 65 62 52 49 44 35 26 21 13 4 5 98 100 78 58 45 47 54 48 34 36 42 26 13 28 80 73 58 59 51 32 19 30 70 62 35 3 358 4 1 356 355 343 329 325 329 239 191 178 163 164 175 176 180 185 175 168 165 161 167 182 196 200 201 202 203 209 219 221 219 220 221 227 243 256 272
79 78 72 77 87 88 82 81 82 74 57 51 56 56 55 55 48 31 14 8 7 12 57 69 54 42 37 46 58 53 35 32 43 26 9 13 25 24 22 33 34 18 7 6 39 23 5 355 356 2 359 352 350 340 325 326 335 336 329 316 199 187 192 185 187 198 195 179 178 188 196 202 210 218 220 216 210 212 219 224 223 222 229 242 247 256 274
40 50 49 49 51 48 44 52 62 52 29 27 31 27 23 37 57 55 32 13 9 18 37 47 43 33 25 28 45 47 35 28 31 25 13 14 15 9 6 7 3 355 353 350 336 321 314 314 338 356 357 336 320 317 312 314 322 326 327 331 331 298 254 213 183 189 198 197 199 206 212 216 220 225 232 238 233 221 213 215 225 235 240 240 237 238 252
16 36 46 48 48 44 37 34 36 33 25 22 21 16 11 12 28 43 36 17 2 6 21 32 30 23 14 9 17 25 21 12 10 14 16 11 2 355 354 350 341 337 340 344 341 335 315 237 241 325 328 279 260 272 293 302 308 311 316 321 323 314 308 317 339 311 254 251 241 229 223 226 229 227 226 235 244 240 228 224 227 228 227 228 228 231 240
18 23 31 41 53 57 48 35 29 28 24 22 21 17 9 4 11 26 26 15 2 0 7 12 15 12 3 352 354 8 5 354 352 360 3 357 349 344 339 335 336 342 347 346 343 342 336 296 266 265 258 261 280 301 298 263 249 258 273 281 290 299 308 315 316 304 299 304 301 280 265 273 279 266 243 234 238 241 244 246 239 225 218 225 234 239 244
42 40 40 45 55 63 57 43 35 30 26 25 25 15 5 3 10 15 13 8 5 4 2 0 1 356 346 339 342 351 350 345 347 350 349 346 344 341 336 335 339 345 347 344 336 331 329 328 330 333 326 315 324 337 338 321 285 266 270 268 263 267 272 277 281 287 295 305 309 302 295 300 305 302 290 276 265 255 250 250 249 246 239 233 230 231 235